DW9840 Weather Reports


Display with metric or nautical units.
time (UTC)temp
F
wind
direction
speed
MPH
gust
MPH
rain 1hr
in
rain 24hr
in
rain mn
in
humidity
%
barometer
mb
20260906190019 72 248 0.0 0.0 0.00 0.00 0.00 53 1014.0
20260906184514 72 250 0.0 0.0 0.00 0.00 0.00 52 1014.1
20260906183009 71 205 0.0 0.0 0.00 0.00 0.00 52 1014.2
20260906181508 69 225 0.0 0.0 0.00 0.00 0.00 53 1014.3
20260906180111 68 186 0.0 0.0 0.00 0.00 0.00 52 1014.4
20260906174604 66 200 0.0 0.0 0.00 0.00 0.00 46 1014.5
20260906173050 65 155 0.0 0.0 0.00 0.00 0.00 26 1014.6
20260906171529 66 236 0.0 0.0 0.00 0.00 0.00 3 1014.6
20260906170024 63 230 0.0 0.0 0.00 0.00 0.00 3 1014.7
20260906164503 60 208 0.0 0.0 0.00 0.00 0.00 3 1014.7
20260906163004 58 274 0.0 0.0 0.00 0.00 0.00 3 1014.7
20260906161602 56 8 0.0 0.0 0.00 0.00 0.00 3 1014.8
20260906160036 54 8 0.0 0.0 0.00 0.00 0.00 3 1014.7
20260906154541 54 8 0.0 0.0 0.00 0.00 0.00 3 1014.8
20260906153009 53 8 0.0 0.0 0.00 0.00 0.00 3 1014.7
20260906151504 53 132 0.0 0.0 0.00 0.00 0.00 3 1014.7
20260906150054 52 132 0.0 0.0 0.00 0.00 0.00 3 1014.6
20260906144539 0 0.0 0.0 0.00 0.00 0.00 1014.4
20260906143016 0 0.0 0.0 0.00 0.00 0.00 1014.2
20260906141515 0 0.0 0.0 0.00 0.00 0.00 1014.2
20260906140058 0 0.0 0.0 0.00 0.00 0.00 1014.0
20260906134547 0 0.0 0.0 0.00 0.00 0.00 1013.9
20260906133026 0 0.0 0.0 0.00 0.00 0.00 1013.7
20260906131520 0 0.0 0.0 0.00 0.00 0.00 1013.5
20260906124555 0 0.0 0.0 0.00 0.00 0.00 1013.3
20260906123040 0 0.0 0.0 0.00 0.00 0.00 1013.4
20260906121528 0 0.0 0.0 0.00 0.00 0.00 1013.3
20260906120013 0 0.0 0.0 0.00 0.00 0.00 1013.3
20260906114510 0 0.0 0.0 0.00 0.00 0.00 1013.3
20260906113011 0 0.0 0.0 0.00 0.00 0.00 1013.3
20260906111621 0 0.0 0.0 0.00 0.00 0.00 1013.2
20260906110055 51 132 0.0 0.0 0.00 0.00 0.00 3 1013.2
20260906104551 53 132 0.0 0.0 0.00 0.00 0.00 3 1013.2
20260906103051 53 132 0.0 0.0 0.00 0.00 0.00 3 1013.3
20260906101543 54 132 0.0 0.0 0.00 0.00 0.00 3 1013.1
20260906100026 54 132 0.0 0.0 0.00 0.00 0.00 3 1013.2
20260906094517 55 132 0.0 0.0 0.00 0.00 0.00 3 1013.2
20260906093100 55 132 0.0 0.0 0.00 0.00 0.00 3 1013.3
20260906093000 55 132 0.0 0.0 0.00 0.00 0.00 3 1013.3
20260906091558 55 132 0.0 0.0 0.00 0.00 0.00 3 1013.3
20260906090055 56 132 0.0 0.0 0.00 0.00 0.00 3 1013.3
20260906084547 56 133 0.0 0.0 0.00 0.00 0.00 3 1013.3
20260906083043 57 132 0.0 0.0 0.00 0.00 0.00 3 1013.3
20260906081539 57 132 0.0 0.0 0.00 0.00 0.00 3 1013.4
20260906080033 57 132 0.0 0.0 0.00 0.00 0.00 3 1013.4
20260906074528 57 132 0.0 0.0 0.00 0.00 0.00 3 1013.4
20260906073006 58 132 0.0 0.0 0.00 0.00 0.00 3 1013.3
20260906071503 58 132 0.0 0.0 0.00 0.00 0.00 3 1013.3
20260906070041 59 132 0.0 0.0 0.00 0.00 0.00 3 1013.3
20260906064537 59 132 0.0 0.0 0.00 0.00 0.00 3 1013.5
20260906063014 59 132 0.0 0.0 0.00 0.00 0.00 3 1013.4
20260906061512 60 133 0.0 0.0 0.00 0.00 0.00 3 1013.4
20260906060049 60 132 0.0 0.0 0.00 0.00 0.00 3 1013.3
20260906054601 59 132 0.0 0.0 0.00 0.00 0.00 3 1013.3
20260906053029 59 132 0.0 0.0 0.00 0.00 0.00 3 1013.3
20260906051532 61 133 0.0 0.0 0.00 0.00 0.00 3 1013.3
20260906050028 61 236 0.0 0.0 0.00 0.00 0.00 3 1013.4
20260906044515 62 236 0.0 0.0 0.00 0.00 0.00 3 1013.4
20260906043011 63 236 0.0 0.0 0.00 0.00 0.00 3 1013.3
20260906041507 63 146 0.0 0.0 0.00 0.00 0.00 3 1013.2
20260906040003 64 146 0.0 0.0 0.00 0.00 0.00 3 1013.1
20260906034600 64 191 0.0 1.0 0.00 0.00 0.00 10 1013.0
20260906033037 64 146 0.0 0.0 0.00 0.00 0.00 23 1013.0
20260906031600 64 190 0.0 0.0 0.00 0.00 0.00 36 1012.9
20260906030012 64 224 0.0 3.0 0.00 0.00 0.00 49 1012.8
20260906024526 65 190 0.0 6.0 0.00 0.00 0.00 58 1012.8
20260906023058 66 214 0.0 2.0 0.00 0.00 0.00 61 1012.9
20260906021544 68 215 0.0 2.0 0.00 0.00 0.00 61 1012.9
20260906020039 70 132 0.0 6.0 0.00 0.00 0.00 58 1012.9
20260906014535 71 161 0.0 3.0 0.00 0.00 0.00 54 1012.8
20260906013032 73 152 0.0 2.0 0.00 0.00 0.00 51 1012.8
20260906011526 75 208 0.0 2.0 0.00 0.00 0.00 47 1012.9
20260906010039 76 159 0.0 1.0 0.00 0.00 0.00 43 1012.9
20260906004516 76 208 0.0 0.0 0.00 0.00 0.00 42 1012.8
20260906003054 75 197 0.0 5.0 0.00 0.00 0.00 44 1012.8
20260906001550 76 229 0.0 6.0 0.00 0.00 0.00 39 1012.8
20260906000032 77 202 0.0 2.0 0.00 0.00 0.00 41 1012.7
20260905234532 78 225 0.0 2.0 0.00 0.00 0.00 41 1012.6
20260905233017 77 221 0.0 6.0 0.00 0.00 0.00 41 1012.6
20260905231512 77 298 0.0 6.0 0.00 0.00 0.00 40 1012.7
20260905230013 78 277 0.0 2.0 0.00 0.00 0.00 41 1013.0
20260905224510 78 245 0.0 6.0 0.00 0.00 0.00 43 1013.1
20260905223058 77 217 1.0 10.0 0.00 0.00 0.00 43 1013.2
20260905221554 77 217 0.0 7.0 0.00 0.00 0.00 41 1013.3
20260905220049 77 223 0.0 7.0 0.00 0.00 0.00 41 1013.3
20260905214545 77 194 0.0 6.0 0.00 0.00 0.00 40 1013.4
20260905213045 77 215 0.0 4.0 0.00 0.00 0.00 42 1013.4
20260905211541 78 176 0.0 10.0 0.00 0.00 0.00 42 1013.4
20260905210016 80 143 0.0 6.0 0.00 0.00 0.00 42 1013.4
20260905204558 80 218 0.0 1.0 0.00 0.00 0.00 43 1013.2
20260905203050 80 217 0.0 0.0 0.00 0.00 0.00 44 1013.2
20260905201533 79 236 0.0 1.0 0.00 0.00 0.00 40 1013.3
20260905200022 79 212 0.0 0.0 0.00 0.00 0.00 44 1013.4
20260905194501 78 214 0.0 0.0 0.00 0.00 0.00 46 1013.5
20260905193059 77 187 0.0 0.0 0.00 0.00 0.00 49 1013.6
20260905191535 77 240 0.0 0.0 0.00 0.00 0.00 50 1013.9